Change the Weather History Date:

Monday, September 10, 2012

  Actual Average Record
Temperature  
Mean Temperature 72 °F -  
Max Temperature 82 °F 84 °F 98 °F (1939)
Min Temperature 63 °F 62 °F 48 °F (1956)
Cooling Degree Days 8    
Growing Degree Days 22 (Base 50)    
Moisture  
Dew Point 55 °F    
Average Humidity 57    
Maximum Humidity 78    
Minimum Humidity 36    
Precipitation  
Precipitation 0.00 in - - ()
Sea Level Pressure  
Sea Level Pressure 30.09 in    
Wind  
Wind Speed 2 mph (North)    
Max Wind Speed 7 mph    
Max Gust Speed -    
Visibility 10 miles    
Events      
Averages and records for this station are not official NWS values.
T = Trace of Precipitation, MM = Missing Value Source: NWS Daily Summary

Daily Weather History Graph

Daily Weather History Graph

Search for Another Location

Airport or City:

Trip Planner

Search our weather history database for the weather conditions in past years. The results will help you decide how hot, cold, wet, or windy it might be!

Date:

Astronomy

Sep. 10, 2012 Rise Set
Actual Time 7:11 AM EDT 7:44 PM EDT
Civil Twilight 6:45 AM EDT 8:10 PM EDT
Nautical Twilight 6:16 AM EDT 8:39 PM EDT
Astronomical Twilight 5:45 AM EDT 9:10 PM EDT
Moon 1:41 AM EDT (9/10) 4:03 PM EDT (9/10)
Length of Visible Light 13h 24m
Length of Day
12h 33m
Waning Crescent, 30% of the Moon is Illuminated
Sep 10
Waning Crescent
Sep 15
New
Sep 22
First Quarter
Sep 29
Full
Oct 8
Last Quarter

Hourly Weather History & Observations

Time (EDT) Temp. Heat Index Dew Point Humidity Pressure Visibility Wind Dir Wind Speed Gust Speed Precip Events Conditions
12:54 AM 68.0 °F - 54.0 °F 61% 30.04 in 10.0 mi North 4.6 mph - N/A   Clear
1:54 AM 66.0 °F - 53.1 °F 63% 30.03 in 10.0 mi Calm Calm - N/A   Clear
2:54 AM 64.9 °F - 54.0 °F 68% 30.02 in 10.0 mi North 3.5 mph - N/A   Mostly Cloudy
3:54 AM 64.0 °F - 55.9 °F 75% 30.02 in 10.0 mi North 3.5 mph - N/A   Clear
4:54 AM 64.0 °F - 55.0 °F 73% 30.04 in 10.0 mi North 4.6 mph - N/A   Clear
5:54 AM 64.0 °F - 54.0 °F 70% 30.05 in 10.0 mi Calm Calm - N/A   Clear
6:54 AM 63.0 °F - 55.0 °F 75% 30.08 in 10.0 mi Calm Calm - N/A   Clear
7:54 AM 63.0 °F - 55.9 °F 78% 30.11 in 10.0 mi North 3.5 mph - N/A   Clear
8:54 AM 68.0 °F - 57.9 °F 70% 30.12 in 10.0 mi North 3.5 mph - N/A   Clear
9:54 AM 72.0 °F - 59.0 °F 64% 30.13 in 10.0 mi Calm Calm - N/A   Clear
10:54 AM 75.9 °F - 54.0 °F 46% 30.14 in 10.0 mi Variable 3.5 mph - N/A   Clear
11:54 AM 77.0 °F - 54.0 °F 45% 30.14 in 10.0 mi East 6.9 mph - N/A   Clear
12:54 PM 79.0 °F - 55.0 °F 44% 30.13 in 10.0 mi Variable 5.8 mph - N/A   Clear
1:54 PM 79.0 °F - 53.1 °F 40% 30.12 in 10.0 mi West 3.5 mph - N/A   Scattered Clouds
2:54 PM 81.0 °F - 52.0 °F 36% 30.09 in 10.0 mi Calm Calm - N/A   Scattered Clouds
3:54 PM 81.0 °F - 52.0 °F 36% 30.08 in 10.0 mi Calm Calm - N/A   Clear
4:54 PM 82.0 °F 81.3 °F 54.0 °F 38% 30.08 in 10.0 mi Calm Calm - N/A   Clear
5:54 PM 81.0 °F 80.4 °F 53.1 °F 38% 30.09 in 10.0 mi Calm Calm - N/A   Clear
6:54 PM 79.0 °F - 55.0 °F 44% 30.10 in 10.0 mi Calm Calm - N/A   Clear
7:54 PM 75.9 °F - 55.0 °F 48% 30.10 in 10.0 mi Calm Calm - N/A   Mostly Cloudy
8:54 PM 75.0 °F - 55.0 °F 50% 30.11 in 10.0 mi Calm Calm - N/A   Overcast
9:54 PM 73.0 °F - 60.1 °F 64% 30.13 in 10.0 mi Calm Calm - N/A   Overcast
10:54 PM 71.1 °F - 61.0 °F 70% 30.14 in 10.0 mi Calm Calm - N/A   Mostly Cloudy
11:54 PM 70.0 °F - 61.0 °F 73% 30.14 in 10.0 mi Calm Calm - N/A   Mostly Cloudy